Wetterdaten: Dienstag, 30.03.2021
Datum Zeit Temp. Auen Feucht Auen Luftdruck Regen Richtung Richtung Windben
30.03.2021 00:00 5,2 C 75 % 1034,3 hPa 0,0 mm W 271 3,2 km/h (1 Bft)
30.03.2021 00:05 5,2 C 75 % 1034,3 hPa 0,0 mm W 271 4,8 km/h (1 Bft)
30.03.2021 00:10 5,1 C 75 % 1034,4 hPa 0,0 mm W 271 4,8 km/h (1 Bft)
30.03.2021 00:15 4,9 C 75 % 1034,4 hPa 0,0 mm W 271 3,2 km/h (1 Bft)
30.03.2021 00:20 4,9 C 76 % 1034,5 hPa 0,0 mm W 271 3,2 km/h (1 Bft)
30.03.2021 00:25 4,8 C 76 % 1034,5 hPa 0,0 mm W 271 0,0 km/h (0 Bft)
30.03.2021 00:30 4,7 C 76 % 1034,5 hPa 0,0 mm W 271 3,2 km/h (1 Bft)
30.03.2021 00:35 4,6 C 76 % 1034,4 hPa 0,0 mm W 271 4,8 km/h (1 Bft)
30.03.2021 00:40 4,5 C 76 % 1034,4 hPa 0,0 mm W 271 4,8 km/h (1 Bft)
30.03.2021 00:45 4,4 C 76 % 1034,4 hPa 0,0 mm W 271 4,8 km/h (1 Bft)
30.03.2021 00:50 4,3 C 76 % 1034,4 hPa 0,0 mm W 271 4,8 km/h (1 Bft)
30.03.2021 00:55 4,2 C 77 % 1034,3 hPa 0,0 mm W 271 3,2 km/h (1 Bft)
30.03.2021 01:00 4,2 C 77 % 1034,3 hPa 0,0 mm W 271 3,2 km/h (1 Bft)
30.03.2021 01:05 4,1 C 78 % 1034,3 hPa 0,0 mm W 271 4,8 km/h (1 Bft)
30.03.2021 01:10 4,0 C 78 % 1034,3 hPa 0,0 mm W 271 4,8 km/h (1 Bft)
30.03.2021 01:15 3,9 C 78 % 1034,3 hPa 0,0 mm W 271 4,8 km/h (1 Bft)
30.03.2021 01:20 3,8 C 78 % 1034,2 hPa 0,0 mm W 271 4,8 km/h (1 Bft)
30.03.2021 01:25 3,7 C 78 % 1034,2 hPa 0,0 mm W 271 4,8 km/h (1 Bft)
30.03.2021 01:30 3,7 C 79 % 1034,3 hPa 0,0 mm W 271 4,8 km/h (1 Bft)
30.03.2021 01:35 3,6 C 79 % 1034,3 hPa 0,0 mm W 271 0,0 km/h (0 Bft)
30.03.2021 01:40 3,6 C 79 % 1034,2 hPa 0,0 mm W 271 4,8 km/h (1 Bft)
30.03.2021 01:45 3,5 C 79 % 1034,4 hPa 0,0 mm W 271 4,8 km/h (1 Bft)
30.03.2021 01:50 3,4 C 80 % 1034,3 hPa 0,0 mm W 271 4,8 km/h (1 Bft)
30.03.2021 01:55 3,4 C 80 % 1034,2 hPa 0,0 mm W 271 3,2 km/h (1 Bft)
30.03.2021 02:00 3,3 C 80 % 1034,2 hPa 0,0 mm W 271 4,8 km/h (1 Bft)
30.03.2021 02:05 3,3 C 80 % 1034,2 hPa 0,0 mm W 271 4,8 km/h (1 Bft)
30.03.2021 02:10 3,2 C 80 % 1034,1 hPa 0,0 mm W 271 4,8 km/h (1 Bft)
30.03.2021 02:15 3,2 C 81 % 1034,0 hPa 0,0 mm W 271 4,8 km/h (1 Bft)
30.03.2021 02:20 3,2 C 81 % 1034,0 hPa 0,0 mm W 271 4,8 km/h (1 Bft)
30.03.2021 02:25 3,1 C 81 % 1034,0 hPa 0,0 mm W 271 4,8 km/h (1 Bft)
30.03.2021 02:30 3,1 C 81 % 1034,0 hPa 0,0 mm W 271 4,8 km/h (1 Bft)
30.03.2021 02:35 3,1 C 81 % 1034,0 hPa 0,0 mm W 271 4,8 km/h (1 Bft)
30.03.2021 02:40 3,0 C 81 % 1034,0 hPa 0,0 mm W 271 1,6 km/h (1 Bft)
30.03.2021 02:45 2,9 C 81 % 1034,0 hPa 0,0 mm W 271 1,6 km/h (1 Bft)
30.03.2021 02:50 2,9 C 81 % 1034,0 hPa 0,0 mm W 271 3,2 km/h (1 Bft)
30.03.2021 02:55 2,8 C 81 % 1034,0 hPa 0,0 mm W 271 3,2 km/h (1 Bft)
30.03.2021 03:00 2,8 C 81 % 1033,9 hPa 0,0 mm W 271 4,8 km/h (1 Bft)
30.03.2021 03:05 2,7 C 81 % 1034,0 hPa 0,0 mm W 271 4,8 km/h (1 Bft)
30.03.2021 03:10 2,7 C 81 % 1033,9 hPa 0,0 mm W 271 4,8 km/h (1 Bft)
30.03.2021 03:15 2,7 C 81 % 1033,9 hPa 0,0 mm W 271 4,8 km/h (1 Bft)
30.03.2021 03:20 2,6 C 82 % 1034,0 hPa 0,0 mm W 271 4,8 km/h (1 Bft)
30.03.2021 03:25 2,6 C 82 % 1034,0 hPa 0,0 mm W 271 3,2 km/h (1 Bft)
30.03.2021 03:30 2,5 C 81 % 1034,0 hPa 0,0 mm W 271 1,6 km/h (1 Bft)
30.03.2021 03:35 2,4 C 81 % 1034,0 hPa 0,0 mm W 271 1,6 km/h (1 Bft)
30.03.2021 03:40 2,3 C 81 % 1034,0 hPa 0,0 mm W 271 0,0 km/h (0 Bft)
30.03.2021 03:45 2,3 C 81 % 1034,0 hPa 0,0 mm W 271 1,6 km/h (1 Bft)
30.03.2021 03:50 2,2 C 81 % 1033,9 hPa 0,0 mm W 271 3,2 km/h (1 Bft)
30.03.2021 03:55 2,1 C 81 % 1033,9 hPa 0,0 mm W 271 6,4 km/h (2 Bft)
30.03.2021 04:00 2,1 C 82 % 1033,9 hPa 0,0 mm W 271 4,8 km/h (1 Bft)
30.03.2021 04:05 2,0 C 82 % 1033,8 hPa 0,0 mm W 271 3,2 km/h (1 Bft)
30.03.2021 04:10 1,9 C 82 % 1033,8 hPa 0,0 mm W 271 3,2 km/h (1 Bft)
30.03.2021 04:15 1,9 C 82 % 1033,8 hPa 0,0 mm W 271 1,6 km/h (1 Bft)
30.03.2021 04:20 1,9 C 82 % 1033,7 hPa 0,0 mm W 271 4,8 km/h (1 Bft)
30.03.2021 04:25 1,9 C 82 % 1033,7 hPa 0,0 mm W 271 6,4 km/h (2 Bft)
30.03.2021 04:30 1,8 C 82 % 1033,7 hPa 0,0 mm W 271 0,0 km/h (0 Bft)
30.03.2021 04:35 1,8 C 82 % 1033,7 hPa 0,0 mm W 271 0,0 km/h (0 Bft)
30.03.2021 04:40 1,7 C 82 % 1033,7 hPa 0,0 mm W 271 1,6 km/h (1 Bft)
30.03.2021 04:45 1,7 C 82 % 1033,7 hPa 0,0 mm W 271 1,6 km/h (1 Bft)
30.03.2021 04:50 1,6 C 82 % 1033,6 hPa 0,0 mm W 271 3,2 km/h (1 Bft)
30.03.2021 04:55 1,5 C 82 % 1033,7 hPa 0,0 mm W 271 3,2 km/h (1 Bft)
30.03.2021 05:00 1,4 C 82 % 1033,7 hPa 0,0 mm W 271 0,0 km/h (0 Bft)
30.03.2021 05:05 1,3 C 82 % 1033,7 hPa 0,0 mm W 271 0,0 km/h (0 Bft)
30.03.2021 05:10 1,3 C 82 % 1033,6 hPa 0,0 mm W 271 0,0 km/h (0 Bft)
30.03.2021 05:15 1,2 C 82 % 1033,7 hPa 0,0 mm W 271 0,0 km/h (0 Bft)
30.03.2021 05:20 1,1 C 82 % 1033,7 hPa 0,0 mm W 271 0,0 km/h (0 Bft)
30.03.2021 05:25 1,1 C 82 % 1033,7 hPa 0,0 mm W 271 1,6 km/h (1 Bft)
30.03.2021 05:30 1,0 C 82 % 1033,7 hPa 0,0 mm W 271 1,6 km/h (1 Bft)
30.03.2021 05:35 0,9 C 82 % 1033,8 hPa 0,0 mm W 271 1,6 km/h (1 Bft)
30.03.2021 05:40 0,8 C 82 % 1033,8 hPa 0,0 mm W 271 3,2 km/h (1 Bft)
30.03.2021 05:45 0,7 C 82 % 1033,8 hPa 0,0 mm W 271 0,0 km/h (0 Bft)
30.03.2021 05:50 0,7 C 83 % 1033,8 hPa 0,0 mm W 271 0,0 km/h (0 Bft)
30.03.2021 05:55 0,6 C 83 % 1033,8 hPa 0,0 mm W 271 0,0 km/h (0 Bft)
30.03.2021 06:00 0,6 C 83 % 1033,8 hPa 0,0 mm W 271 0,0 km/h (0 Bft)
30.03.2021 06:05 0,5 C 83 % 1033,8 hPa 0,0 mm W 271 0,0 km/h (0 Bft)
30.03.2021 06:10 0,4 C 83 % 1033,8 hPa 0,0 mm W 271 0,0 km/h (0 Bft)
30.03.2021 06:15 0,4 C 83 % 1033,7 hPa 0,0 mm W 271 0,0 km/h (0 Bft)
30.03.2021 06:20 0,3 C 83 % 1033,8 hPa 0,0 mm W 271 1,6 km/h (1 Bft)
30.03.2021 06:25 0,3 C 83 % 1033,8 hPa 0,0 mm W 271 0,0 km/h (0 Bft)
30.03.2021 06:30 0,3 C 83 % 1033,8 hPa 0,0 mm W 271 0,0 km/h (0 Bft)
30.03.2021 06:35 0,2 C 83 % 1033,8 hPa 0,0 mm W 271 0,0 km/h (0 Bft)
30.03.2021 06:40 0,2 C 83 % 1033,8 hPa 0,0 mm W 271 0,0 km/h (0 Bft)
30.03.2021 06:45 0,1 C 84 % 1033,9 hPa 0,0 mm W 271 0,0 km/h (0 Bft)
30.03.2021 06:50 0,1 C 83 % 1033,9 hPa 0,0 mm W 271 0,0 km/h (0 Bft)
30.03.2021 06:55 0,1 C 84 % 1033,9 hPa 0,0 mm W 271 0,0 km/h (0 Bft)
30.03.2021 07:00 0,0 C 84 % 1033,9 hPa 0,0 mm W 271 0,0 km/h (0 Bft)
30.03.2021 07:05 0,0 C 84 % 1034,0 hPa 0,0 mm W 271 0,0 km/h (0 Bft)
30.03.2021 07:10 0,1 C 84 % 1034,0 hPa 0,0 mm W 271 0,0 km/h (0 Bft)
30.03.2021 07:15 0,1 C 84 % 1034,0 hPa 0,0 mm W 271 0,0 km/h (0 Bft)
30.03.2021 07:20 0,1 C 84 % 1034,0 hPa 0,0 mm W 271 0,0 km/h (0 Bft)
30.03.2021 07:25 0,2 C 85 % 1034,0 hPa 0,0 mm W 271 0,0 km/h (0 Bft)
30.03.2021 07:30 0,4 C 85 % 1034,1 hPa 0,0 mm W 271 0,0 km/h (0 Bft)
30.03.2021 07:35 0,6 C 85 % 1034,1 hPa 0,0 mm W 271 0,0 km/h (0 Bft)
30.03.2021 07:40 0,9 C 86 % 1034,1 hPa 0,0 mm W 271 0,0 km/h (0 Bft)
30.03.2021 07:45 1,2 C 86 % 1034,2 hPa 0,0 mm W 271 0,0 km/h (0 Bft)
30.03.2021 07:50 1,5 C 86 % 1034,2 hPa 0,0 mm W 271 0,0 km/h (0 Bft)
30.03.2021 07:55 1,9 C 86 % 1034,3 hPa 0,0 mm W 271 0,0 km/h (0 Bft)
30.03.2021 08:00 2,2 C 87 % 1034,3 hPa 0,0 mm W 271 0,0 km/h (0 Bft)
30.03.2021 08:05 2,8 C 87 % 1034,3 hPa 0,0 mm W 271 0,0 km/h (0 Bft)
30.03.2021 08:10 4,2 C 86 % 1034,2 hPa 0,0 mm W 271 0,0 km/h (0 Bft)
30.03.2021 08:15 5,0 C 83 % 1034,2 hPa 0,0 mm W 271 0,0 km/h (0 Bft)
30.03.2021 08:20 5,2 C 80 % 1034,2 hPa 0,0 mm W 271 0,0 km/h (0 Bft)
30.03.2021 08:25 5,5 C 80 % 1034,1 hPa 0,0 mm W 271 0,0 km/h (0 Bft)
30.03.2021 08:30 5,8 C 79 % 1034,2 hPa 0,0 mm W 271 0,0 km/h (0 Bft)
30.03.2021 08:35 6,4 C 78 % 1034,2 hPa 0,0 mm W 271 0,0 km/h (0 Bft)
30.03.2021 08:40 6,8 C 77 % 1034,1 hPa 0,0 mm W 271 0,0 km/h (0 Bft)
30.03.2021 08:45 7,4 C 74 % 1034,1 hPa 0,0 mm W 271 0,0 km/h (0 Bft)
30.03.2021 08:50 7,9 C 71 % 1034,1 hPa 0,0 mm W 271 0,0 km/h (0 Bft)
30.03.2021 08:55 8,4 C 73 % 1034,0 hPa 0,0 mm W 271 0,0 km/h (0 Bft)
30.03.2021 09:00 8,8 C 71 % 1034,0 hPa 0,0 mm W 271 0,0 km/h (0 Bft)
30.03.2021 09:05 8,8 C 68 % 1034,0 hPa 0,0 mm W 271 1,6 km/h (1 Bft)
30.03.2021 09:10 8,2 C 73 % 1033,9 hPa 0,0 mm W 271 1,6 km/h (1 Bft)
30.03.2021 09:15 8,3 C 70 % 1033,9 hPa 0,0 mm W 271 0,0 km/h (0 Bft)
30.03.2021 09:20 8,2 C 72 % 1034,0 hPa 0,0 mm W 271 1,6 km/h (1 Bft)
30.03.2021 09:25 8,4 C 72 % 1034,0 hPa 0,0 mm W 271 3,2 km/h (1 Bft)
30.03.2021 09:30 8,7 C 74 % 1033,9 hPa 0,0 mm W 271 3,2 km/h (1 Bft)
30.03.2021 09:35 8,8 C 70 % 1033,9 hPa 0,0 mm W 271 3,2 km/h (1 Bft)
30.03.2021 09:40 9,1 C 72 % 1034,0 hPa 0,0 mm W 271 3,2 km/h (1 Bft)
30.03.2021 09:45 9,3 C 72 % 1033,9 hPa 0,0 mm W 271 3,2 km/h (1 Bft)
30.03.2021 09:50 9,6 C 70 % 1033,8 hPa 0,0 mm W 280 4,8 km/h (1 Bft)
30.03.2021 09:55 9,9 C 73 % 1033,8 hPa 0,0 mm N 9 4,8 km/h (1 Bft)
30.03.2021 10:00 10,2 C 73 % 1033,9 hPa 0,0 mm O-NO 63 4,8 km/h (1 Bft)
30.03.2021 10:05 10,4 C 72 % 1033,9 hPa 0,0 mm O-NO 67 4,8 km/h (1 Bft)
30.03.2021 10:10 11,0 C 69 % 1033,8 hPa 0,0 mm O-SO 121 6,4 km/h (2 Bft)
30.03.2021 10:15 11,1 C 69 % 1033,9 hPa 0,0 mm O-SO 107 4,8 km/h (1 Bft)
30.03.2021 10:20 11,2 C 67 % 1033,8 hPa 0,0 mm O-SO 112 6,4 km/h (2 Bft)
30.03.2021 10:25 11,7 C 66 % 1033,8 hPa 0,0 mm O-SO 115 8,0 km/h (2 Bft)
30.03.2021 10:30 12,0 C 66 % 1033,8 hPa 0,0 mm O 82 4,8 km/h (1 Bft)
30.03.2021 10:35 12,1 C 64 % 1033,7 hPa 0,0 mm O 82 9,7 km/h (2 Bft)
30.03.2021 10:40 12,5 C 67 % 1033,8 hPa 0,0 mm O 98 8,0 km/h (2 Bft)
30.03.2021 10:45 12,8 C 62 % 1033,7 hPa 0,0 mm O 92 9,7 km/h (2 Bft)
30.03.2021 10:50 13,0 C 65 % 1033,7 hPa 0,0 mm O-SO 115 8,0 km/h (2 Bft)
30.03.2021 10:55 13,4 C 61 % 1033,7 hPa 0,0 mm O-SO 113 8,0 km/h (2 Bft)
30.03.2021 11:00 13,7 C 62 % 1033,7 hPa 0,0 mm O 95 8,0 km/h (2 Bft)
30.03.2021 11:05 13,9 C 62 % 1033,6 hPa 0,0 mm O-SO 118 8,0 km/h (2 Bft)
30.03.2021 11:10 13,9 C 59 % 1033,6 hPa 0,0 mm O-SO 122 8,0 km/h (2 Bft)
30.03.2021 11:15 14,5 C 59 % 1033,5 hPa 0,0 mm O-SO 107 9,7 km/h (2 Bft)
30.03.2021 11:20 14,5 C 57 % 1033,5 hPa 0,0 mm SO 127 8,0 km/h (2 Bft)
30.03.2021 11:25 14,8 C 56 % 1033,5 hPa 0,0 mm O-SO 113 6,4 km/h (2 Bft)
30.03.2021 11:30 15,1 C 55 % 1033,5 hPa 0,0 mm SO 136 6,4 km/h (2 Bft)
30.03.2021 11:35 15,6 C 52 % 1033,4 hPa 0,0 mm O-SO 113 6,4 km/h (2 Bft)
30.03.2021 11:40 15,5 C 51 % 1033,4 hPa 0,0 mm O-SO 121 8,0 km/h (2 Bft)
30.03.2021 11:45 15,8 C 52 % 1033,4 hPa 0,0 mm O 98 4,8 km/h (1 Bft)
30.03.2021 11:50 16,1 C 50 % 1033,3 hPa 0,0 mm O 100 4,8 km/h (1 Bft)
30.03.2021 11:55 16,3 C 49 % 1033,3 hPa 0,0 mm O-SO 116 8,0 km/h (2 Bft)
30.03.2021 12:00 16,5 C 50 % 1033,3 hPa 0,0 mm SO 144 6,4 km/h (2 Bft)
30.03.2021 12:05 16,8 C 45 % 1033,3 hPa 0,0 mm S-SO 150 9,7 km/h (2 Bft)
30.03.2021 12:10 16,8 C 50 % 1033,2 hPa 0,0 mm SO 127 9,7 km/h (2 Bft)
30.03.2021 12:15 16,9 C 48 % 1033,1 hPa 0,0 mm SO 128 6,4 km/h (2 Bft)
30.03.2021 12:20 17,1 C 43 % 1033,1 hPa 0,0 mm O-SO 109 8,0 km/h (2 Bft)
30.03.2021 12:25 17,6 C 45 % 1033,1 hPa 0,0 mm O 86 9,7 km/h (2 Bft)
30.03.2021 12:30 17,7 C 44 % 1033,1 hPa 0,0 mm SO 136 9,7 km/h (2 Bft)
30.03.2021 12:35 17,7 C 41 % 1032,9 hPa 0,0 mm O-SO 119 11,3 km/h (2 Bft)
30.03.2021 12:40 17,6 C 42 % 1032,9 hPa 0,0 mm O 97 11,3 km/h (2 Bft)
30.03.2021 12:45 17,7 C 42 % 1032,9 hPa 0,0 mm SO 138 8,0 km/h (2 Bft)
30.03.2021 12:50 17,9 C 45 % 1032,9 hPa 0,0 mm SO 128 9,7 km/h (2 Bft)
30.03.2021 12:55 18,2 C 43 % 1032,8 hPa 0,0 mm S-SO 152 11,3 km/h (2 Bft)
30.03.2021 13:00 18,3 C 47 % 1032,8 hPa 0,0 mm O-SO 112 9,7 km/h (2 Bft)
30.03.2021 13:05 18,4 C 43 % 1032,6 hPa 0,0 mm O 99 8,0 km/h (2 Bft)
30.03.2021 13:10 18,3 C 43 % 1032,6 hPa 0,0 mm O 83 8,0 km/h (2 Bft)
30.03.2021 13:15 18,5 C 43 % 1032,6 hPa 0,0 mm SO 127 8,0 km/h (2 Bft)
30.03.2021 13:20 18,4 C 37 % 1032,5 hPa 0,0 mm O-SO 109 6,4 km/h (2 Bft)
30.03.2021 13:25 18,6 C 43 % 1032,4 hPa 0,0 mm O 101 8,0 km/h (2 Bft)
30.03.2021 13:30 18,8 C 38 % 1032,3 hPa 0,0 mm S-SO 151 4,8 km/h (1 Bft)
30.03.2021 13:35 18,9 C 39 % 1032,3 hPa 0,0 mm S-SO 147 4,8 km/h (1 Bft)
30.03.2021 13:40 19,0 C 37 % 1032,2 hPa 0,0 mm O-SO 117 6,4 km/h (2 Bft)
30.03.2021 13:45 19,1 C 37 % 1032,2 hPa 0,0 mm S-SO 155 9,7 km/h (2 Bft)
30.03.2021 13:50 19,1 C 39 % 1032,2 hPa 0,0 mm S-SO 155 4,8 km/h (1 Bft)
30.03.2021 13:55 19,4 C 39 % 1032,1 hPa 0,0 mm SW 232 6,4 km/h (2 Bft)
30.03.2021 14:00 19,4 C 41 % 1032,0 hPa 0,0 mm O 92 11,3 km/h (2 Bft)
30.03.2021 14:05 19,2 C 41 % 1031,9 hPa 0,0 mm O-SO 119 11,3 km/h (2 Bft)
30.03.2021 14:10 19,2 C 41 % 1031,8 hPa 0,0 mm SO 146 8,0 km/h (2 Bft)
30.03.2021 14:15 19,2 C 42 % 1031,8 hPa 0,0 mm SO 125 6,4 km/h (2 Bft)
30.03.2021 14:20 19,2 C 39 % 1031,8 hPa 0,0 mm S-SO 155 8,0 km/h (2 Bft)
30.03.2021 14:25 19,2 C 37 % 1031,7 hPa 0,0 mm O-NO 67 8,0 km/h (2 Bft)
30.03.2021 14:30 19,3 C 42 % 1031,7 hPa 0,0 mm S-SO 167 6,4 km/h (2 Bft)
30.03.2021 14:35 19,4 C 38 % 1031,6 hPa 0,0 mm SO 138 6,4 km/h (2 Bft)
30.03.2021 14:40 19,4 C 46 % 1031,5 hPa 0,0 mm O-SO 106 6,4 km/h (2 Bft)
30.03.2021 14:45 19,3 C 39 % 1031,4 hPa 0,0 mm O-SO 107 4,8 km/h (1 Bft)
30.03.2021 14:50 19,3 C 39 % 1031,4 hPa 0,0 mm S-SO 160 8,0 km/h (2 Bft)
30.03.2021 14:55 19,2 C 39 % 1031,3 hPa 0,0 mm SO 145 6,4 km/h (2 Bft)
30.03.2021 15:00 19,3 C 36 % 1031,2 hPa 0,0 mm S-SO 147 4,8 km/h (1 Bft)
30.03.2021 15:05 19,5 C 40 % 1031,2 hPa 0,0 mm S 171 6,4 km/h (2 Bft)
30.03.2021 15:10 19,4 C 36 % 1031,2 hPa 0,0 mm S-SW 210 3,2 km/h (1 Bft)
30.03.2021 15:15 19,4 C 37 % 1031,0 hPa 0,0 mm S-SW 193 4,8 km/h (1 Bft)
30.03.2021 15:20 19,4 C 38 % 1030,9 hPa 0,0 mm SW 231 3,2 km/h (1 Bft)
30.03.2021 15:25 19,7 C 37 % 1030,9 hPa 0,0 mm S 188 4,8 km/h (1 Bft)
30.03.2021 15:30 19,6 C 39 % 1030,8 hPa 0,0 mm S 176 6,4 km/h (2 Bft)
30.03.2021 15:35 19,6 C 41 % 1030,8 hPa 0,0 mm O 98 8,0 km/h (2 Bft)
30.03.2021 15:40 19,5 C 38 % 1030,8 hPa 0,0 mm O 98 4,8 km/h (1 Bft)
30.03.2021 15:45 19,4 C 39 % 1030,7 hPa 0,0 mm O 101 4,8 km/h (1 Bft)
30.03.2021 15:50 19,5 C 37 % 1030,7 hPa 0,0 mm O-NO 69 6,4 km/h (2 Bft)
30.03.2021 15:55 19,6 C 39 % 1030,7 hPa 0,0 mm O-NO 61 6,4 km/h (2 Bft)
30.03.2021 16:00 19,5 C 36 % 1030,6 hPa 0,0 mm O-NO 61 3,2 km/h (1 Bft)
30.03.2021 16:05 19,4 C 34 % 1030,5 hPa 0,0 mm O-NO 61 3,2 km/h (1 Bft)
30.03.2021 16:10 19,4 C 40 % 1030,4 hPa 0,0 mm O-SO 117 6,4 km/h (2 Bft)
30.03.2021 16:15 19,4 C 34 % 1030,5 hPa 0,0 mm SO 142 8,0 km/h (2 Bft)
30.03.2021 16:20 19,4 C 35 % 1030,4 hPa 0,0 mm N-NO 17 4,8 km/h (1 Bft)
30.03.2021 16:25 19,3 C 33 % 1030,4 hPa 0,0 mm N-NW 345 3,2 km/h (1 Bft)
30.03.2021 16:30 19,4 C 39 % 1030,3 hPa 0,0 mm O 100 8,0 km/h (2 Bft)
30.03.2021 16:35 19,4 C 37 % 1030,3 hPa 0,0 mm O-SO 108 8,0 km/h (2 Bft)
30.03.2021 16:40 19,4 C 39 % 1030,2 hPa 0,0 mm O-SO 108 4,8 km/h (1 Bft)
30.03.2021 16:45 19,4 C 37 % 1030,2 hPa 0,0 mm O-SO 113 6,4 km/h (2 Bft)
30.03.2021 16:50 19,3 C 37 % 1030,1 hPa 0,0 mm O-SO 113 4,8 km/h (1 Bft)
30.03.2021 16:55 19,3 C 37 % 1030,0 hPa 0,0 mm O-SO 113 4,8 km/h (1 Bft)
30.03.2021 17:00 19,3 C 37 % 1030,0 hPa 0,0 mm O-SO 113 4,8 km/h (1 Bft)
30.03.2021 17:05 19,2 C 38 % 1029,9 hPa 0,0 mm O-SO 105 6,4 km/h (2 Bft)
30.03.2021 17:10 19,2 C 39 % 1029,9 hPa 0,0 mm O-SO 105 6,4 km/h (2 Bft)
30.03.2021 17:15 19,1 C 38 % 1029,9 hPa 0,0 mm O-SO 106 6,4 km/h (2 Bft)
30.03.2021 17:20 19,1 C 40 % 1029,9 hPa 0,0 mm O-SO 103 6,4 km/h (2 Bft)
30.03.2021 17:25 19,0 C 42 % 1029,8 hPa 0,0 mm O-SO 105 6,4 km/h (2 Bft)
30.03.2021 17:30 18,9 C 43 % 1029,7 hPa 0,0 mm O-SO 105 6,4 km/h (2 Bft)
30.03.2021 17:35 18,9 C 42 % 1029,6 hPa 0,0 mm O-SO 105 6,4 km/h (2 Bft)
30.03.2021 17:40 18,8 C 42 % 1029,7 hPa 0,0 mm O-SO 105 6,4 km/h (2 Bft)
30.03.2021 17:45 18,8 C 43 % 1029,6 hPa 0,0 mm O-SO 105 6,4 km/h (2 Bft)
30.03.2021 17:50 18,7 C 43 % 1029,6 hPa 0,0 mm O-SO 109 6,4 km/h (2 Bft)
30.03.2021 17:55 18,6 C 43 % 1029,6 hPa 0,0 mm O-SO 103 8,0 km/h (2 Bft)
30.03.2021 18:00 18,5 C 45 % 1029,5 hPa 0,0 mm O-SO 109 8,0 km/h (2 Bft)
30.03.2021 18:05 18,4 C 46 % 1029,5 hPa 0,0 mm O-SO 109 8,0 km/h (2 Bft)
30.03.2021 18:10 18,3 C 46 % 1029,6 hPa 0,0 mm O 84 8,0 km/h (2 Bft)
30.03.2021 18:15 18,2 C 45 % 1029,6 hPa 0,0 mm O-SO 110 11,3 km/h (2 Bft)
30.03.2021 18:20 18,1 C 49 % 1029,5 hPa 0,0 mm O-SO 110 4,8 km/h (1 Bft)
30.03.2021 18:25 18,1 C 48 % 1029,5 hPa 0,0 mm O-SO 109 4,8 km/h (1 Bft)
30.03.2021 18:30 18,0 C 47 % 1029,4 hPa 0,0 mm O-SO 110 4,8 km/h (1 Bft)
30.03.2021 18:35 17,9 C 48 % 1029,4 hPa 0,0 mm SO 129 6,4 km/h (2 Bft)
30.03.2021 18:40 17,8 C 49 % 1029,5 hPa 0,0 mm SO 129 3,2 km/h (1 Bft)
30.03.2021 18:45 17,7 C 51 % 1029,5 hPa 0,0 mm SO 129 3,2 km/h (1 Bft)
30.03.2021 18:50 17,6 C 51 % 1029,4 hPa 0,0 mm SO 129 1,6 km/h (1 Bft)
30.03.2021 18:55 17,5 C 52 % 1029,5 hPa 0,0 mm SO 129 1,6 km/h (1 Bft)
30.03.2021 19:00 17,3 C 53 % 1029,4 hPa 0,0 mm SO 129 3,2 km/h (1 Bft)
30.03.2021 19:05 17,1 C 53 % 1029,4 hPa 0,0 mm SO 129 3,2 km/h (1 Bft)
30.03.2021 19:10 16,8 C 53 % 1029,4 hPa 0,0 mm SO 129 3,2 km/h (1 Bft)
30.03.2021 19:15 16,6 C 54 % 1029,4 hPa 0,0 mm SO 129 1,6 km/h (1 Bft)
30.03.2021 19:20 16,3 C 54 % 1029,4 hPa 0,0 mm SO 129 1,6 km/h (1 Bft)
30.03.2021 19:25 16,1 C 55 % 1029,5 hPa 0,0 mm SO 129 1,6 km/h (1 Bft)
30.03.2021 19:30 15,8 C 54 % 1029,5 hPa 0,0 mm SO 129 0,0 km/h (0 Bft)
30.03.2021 19:35 15,5 C 55 % 1029,6 hPa 0,0 mm SO 129 0,0 km/h (0 Bft)
30.03.2021 19:40 15,2 C 56 % 1029,6 hPa 0,0 mm SO 129 0,0 km/h (0 Bft)
30.03.2021 19:45 14,9 C 56 % 1029,7 hPa 0,0 mm SO 129 0,0 km/h (0 Bft)
30.03.2021 19:50 14,7 C 56 % 1029,8 hPa 0,0 mm SO 129 0,0 km/h (0 Bft)
30.03.2021 19:55 14,4 C 57 % 1029,7 hPa 0,0 mm SO 129 1,6 km/h (1 Bft)
30.03.2021 20:00 14,1 C 58 % 1029,8 hPa 0,0 mm SO 129 0,0 km/h (0 Bft)
30.03.2021 20:05 13,8 C 58 % 1029,8 hPa 0,0 mm SO 129 0,0 km/h (0 Bft)
30.03.2021 20:10 13,4 C 58 % 1029,8 hPa 0,0 mm SO 129 1,6 km/h (1 Bft)
30.03.2021 20:15 13,1 C 59 % 1029,9 hPa 0,0 mm SO 129 3,2 km/h (1 Bft)
30.03.2021 20:20 12,7 C 60 % 1029,9 hPa 0,0 mm S 186 3,2 km/h (1 Bft)
30.03.2021 20:25 12,4 C 61 % 1030,0 hPa 0,0 mm S 186 3,2 km/h (1 Bft)
30.03.2021 20:30 12,1 C 62 % 1029,9 hPa 0,0 mm S 186 3,2 km/h (1 Bft)
30.03.2021 20:35 11,8 C 63 % 1030,0 hPa 0,0 mm S 186 1,6 km/h (1 Bft)
30.03.2021 20:40 11,6 C 64 % 1030,0 hPa 0,0 mm S 186 3,2 km/h (1 Bft)
30.03.2021 20:45 11,3 C 64 % 1029,9 hPa 0,0 mm S 186 0,0 km/h (0 Bft)
30.03.2021 20:50 11,1 C 65 % 1030,0 hPa 0,0 mm S 186 1,6 km/h (1 Bft)
30.03.2021 20:55 10,8 C 65 % 1029,9 hPa 0,0 mm S 186 1,6 km/h (1 Bft)
30.03.2021 21:00 10,6 C 66 % 1029,9 hPa 0,0 mm S 186 3,2 km/h (1 Bft)
30.03.2021 21:05 10,4 C 66 % 1029,9 hPa 0,0 mm W 259 3,2 km/h (1 Bft)
30.03.2021 21:10 10,2 C 67 % 1029,9 hPa 0,0 mm W 259 3,2 km/h (1 Bft)
30.03.2021 21:15 10,0 C 67 % 1029,9 hPa 0,0 mm W 259 3,2 km/h (1 Bft)
30.03.2021 21:20 9,8 C 68 % 1029,9 hPa 0,0 mm W 259 3,2 km/h (1 Bft)
30.03.2021 21:25 9,6 C 68 % 1030,0 hPa 0,0 mm W 259 0,0 km/h (0 Bft)
30.03.2021 21:30 9,4 C 68 % 1029,9 hPa 0,0 mm W 259 0,0 km/h (0 Bft)
30.03.2021 21:35 9,2 C 69 % 1030,0 hPa 0,0 mm W 259 1,6 km/h (1 Bft)
30.03.2021 21:40 9,1 C 69 % 1030,0 hPa 0,0 mm W 259 4,8 km/h (1 Bft)
30.03.2021 21:45 8,8 C 70 % 1030,0 hPa 0,0 mm W 259 4,8 km/h (1 Bft)
30.03.2021 21:50 8,7 C 71 % 1029,9 hPa 0,0 mm W 259 4,8 km/h (1 Bft)
30.03.2021 21:55 8,6 C 72 % 1029,9 hPa 0,0 mm W 259 4,8 km/h (1 Bft)
30.03.2021 22:00 8,4 C 72 % 1029,9 hPa 0,0 mm W 259 3,2 km/h (1 Bft)
30.03.2021 22:05 8,3 C 72 % 1029,9 hPa 0,0 mm W 259 3,2 km/h (1 Bft)
30.03.2021 22:10 8,2 C 73 % 1029,9 hPa 0,0 mm W 259 1,6 km/h (1 Bft)
30.03.2021 22:15 8,1 C 73 % 1029,9 hPa 0,0 mm W 259 3,2 km/h (1 Bft)
30.03.2021 22:20 7,9 C 73 % 1029,9 hPa 0,0 mm W 259 3,2 km/h (1 Bft)
30.03.2021 22:25 7,8 C 74 % 1029,8 hPa 0,0 mm W 259 4,8 km/h (1 Bft)
30.03.2021 22:30 7,6 C 74 % 1029,8 hPa 0,0 mm W 259 4,8 km/h (1 Bft)
30.03.2021 22:35 7,5 C 75 % 1029,8 hPa 0,0 mm W 259 3,2 km/h (1 Bft)
30.03.2021 22:40 7,4 C 75 % 1029,7 hPa 0,0 mm W 259 4,8 km/h (1 Bft)
30.03.2021 22:45 7,3 C 75 % 1029,7 hPa 0,0 mm W 259 3,2 km/h (1 Bft)
30.03.2021 22:50 7,2 C 75 % 1029,7 hPa 0,0 mm W 259 1,6 km/h (1 Bft)
30.03.2021 22:55 7,1 C 75 % 1029,6 hPa 0,0 mm W 259 3,2 km/h (1 Bft)
30.03.2021 23:00 6,9 C 76 % 1029,7 hPa 0,0 mm W 259 3,2 km/h (1 Bft)
30.03.2021 23:05 6,8 C 76 % 1029,6 hPa 0,0 mm W 259 3,2 km/h (1 Bft)
30.03.2021 23:10 6,7 C 76 % 1029,6 hPa 0,0 mm W 259 3,2 km/h (1 Bft)
30.03.2021 23:15 6,6 C 76 % 1029,6 hPa 0,0 mm W 259 0,0 km/h (0 Bft)
30.03.2021 23:20 6,5 C 76 % 1029,6 hPa 0,0 mm W 259 0,0 km/h (0 Bft)
30.03.2021 23:25 6,3 C 76 % 1029,5 hPa 0,0 mm W 259 0,0 km/h (0 Bft)
30.03.2021 23:30 6,3 C 76 % 1029,5 hPa 0,0 mm W 259 3,2 km/h (1 Bft)
30.03.2021 23:35 6,2 C 76 % 1029,4 hPa 0,0 mm W 259 1,6 km/h (1 Bft)
30.03.2021 23:40 6,1 C 77 % 1029,4 hPa 0,0 mm W 259 4,8 km/h (1 Bft)
30.03.2021 23:45 5,9 C 77 % 1029,4 hPa 0,0 mm W 259 3,2 km/h (1 Bft)
30.03.2021 23:50 5,8 C 77 % 1029,4 hPa 0,0 mm W 259 1,6 km/h (1 Bft)
30.03.2021 23:55 5,7 C 77 % 1029,4 hPa 0,0 mm W 259 3,2 km/h (1 Bft)
_ Min-Zeit 07:00 16:25 18:30 - - - 00:25
Minimum _ 0,0 C 33 % 1029,4 hPa - - - 0,0 km/h (0 Bft)
_ Max-Zeit 15:25 08:00 00:20 00:00 - - 12:35
Maximum _ 19,7 C 87 % 1034,5 hPa 0,0 mm - - 11,3 km/h
O-SO (2 Bft)
Durchschnitt _ 10,1 C 64 % 1032,2 hPa #0,0 mm W - 3,9 km/h (1 Bft)